When you browse on this site, cookies collect data to enhance your experience and personalize the content and advertising you see.
Visit our Privacy Policy to learn more. By continuing to use the site, you agree to this use of cookies and data.
  • In Germany
  • List of Countries
  • For 7 days
  • Water Temperature
  • Weather Map
  • Weather Widgets
  • user-avatar
    Login

    Hourly Weather Oble

    Today, 25 May, Monday

    Time Temperature Precipitation Wind Pressure Humidity
    00:00 +9°C° 0 mm 2 mps 756 mmHg 89%
    01:00 +9°C° 0 mm 2 mps 756 mmHg 90%
    02:00 +9°C° 0.1 mm 2 mps 756 mmHg 91%
    03:00 +10°C° 0.1 mm 1 mps 756 mmHg 91%
    04:00 +10°C° 0.1 mm 1 mps 756 mmHg 92%
    05:00 +11°C° 0.1 mm 1 mps 756 mmHg 90%
    06:00 +10°C° 0.1 mm 2 mps 756 mmHg 88%
    07:00 +10°C° 0 mm 2 mps 757 mmHg 88%
    08:00 +12°C° 0.3 mm 2 mps 757 mmHg 85%
    09:00 +13°C° 0.3 mm 2 mps 757 mmHg 81%
    10:00 +13°C° 0.3 mm 2 mps 757 mmHg 78%
    11:00 +15°C° 0.5 mm 2 mps 757 mmHg 72%
    12:00 +16°C° 0.5 mm 2 mps 757 mmHg 67%
    13:00 +16°C° 0 mm 3 mps 757 mmHg 63%
    14:00 +16°C° 0.5 mm 3 mps 757 mmHg 65%
    15:00 +16°C° 0.5 mm 3 mps 757 mmHg 66%
    16:00 +16°C° 0.5 mm 3 mps 757 mmHg 68%
    17:00 +14°C° 0.6 mm 3 mps 757 mmHg 73%
    18:00 +14°C° 0.6 mm 2 mps 757 mmHg 78%
    19:00 +13°C° 0.6 mm 2 mps 758 mmHg 84%
    20:00 +12°C° 0 mm 2 mps 758 mmHg 86%
    21:00 +10°C° 0 mm 2 mps 759 mmHg 89%
    22:00 +10°C° 0 mm 2 mps 759 mmHg 91%
    23:00 +9°C° 0 mm 2 mps 759 mmHg 92%

    Tomorrow, 26 May, Tuesday

    Time Temperature Precipitation Wind Pressure Humidity
    00:00 +9°C° 0 mm 2 mps 759 mmHg 94%
    01:00 +8°C° 0 mm 2 mps 759 mmHg 95%
    02:00 +8°C° 0.1 mm 2 mps 760 mmHg 96%
    03:00 +8°C° 0.1 mm 2 mps 760 mmHg 96%
    04:00 +7°C° 0.1 mm 3 mps 760 mmHg 96%
    05:00 +9°C° 0 mm 3 mps 760 mmHg 93%
    06:00 +10°C° 0 mm 3 mps 761 mmHg 90%
    07:00 +12°C° 0 mm 3 mps 761 mmHg 86%
    08:00 +13°C° 0.3 mm 4 mps 761 mmHg 80%
    09:00 +15°C° 0.3 mm 4 mps 761 mmHg 74%
    10:00 +16°C° 0.3 mm 5 mps 761 mmHg 68%
    11:00 +17°C° 0.2 mm 5 mps 761 mmHg 65%
    12:00 +19°C° 0.2 mm 5 mps 761 mmHg 62%
    13:00 +19°C° 0.2 mm 5 mps 761 mmHg 59%
    14:00 +19°C° 0.3 mm 5 mps 761 mmHg 61%
    15:00 +19°C° 0.3 mm 5 mps 760 mmHg 63%
    16:00 +17°C° 0.3 mm 5 mps 760 mmHg 66%
    17:00 +16°C° 0.3 mm 5 mps 760 mmHg 72%
    18:00 +15°C° 0.3 mm 4 mps 761 mmHg 78%
    19:00 +14°C° 0.3 mm 3 mps 761 mmHg 84%
    20:00 +13°C° 0 mm 3 mps 761 mmHg 87%
    21:00 +12°C° 0 mm 3 mps 761 mmHg 90%
    22:00 +11°C° 0 mm 3 mps 762 mmHg 93%
    23:00 +11°C° 0 mm 3 mps 762 mmHg 94%

    Day after tomorrow, 27 May, Wednesday

    Time Temperature Precipitation Wind Pressure Humidity
    00:00 +10°C° 0 mm 3 mps 761 mmHg 95%
    01:00 +10°C° 0 mm 3 mps 761 mmHg 96%
    02:00 +9°C° 0 mm 3 mps 761 mmHg 96%
    03:00 +9°C° 0 mm 3 mps 761 mmHg 96%
    04:00 +9°C° 0 mm 3 mps 761 mmHg 96%
    05:00 +10°C° 0 mm 3 mps 761 mmHg 92%
    06:00 +12°C° 0 mm 3 mps 761 mmHg 88%
    07:00 +14°C° 0 mm 3 mps 762 mmHg 83%
    08:00 +16°C° 0.3 mm 3 mps 761 mmHg 77%
    09:00 +17°C° 0.3 mm 4 mps 761 mmHg 72%
    10:00 +19°C° 0.3 mm 4 mps 761 mmHg 66%
    11:00 +19°C° 0.3 mm 4 mps 760 mmHg 64%
    12:00 +19°C° 0.3 mm 4 mps 760 mmHg 62%
    13:00 +20°C° 0.3 mm 4 mps 760 mmHg 59%
    14:00 +20°C° 0.3 mm 4 mps 759 mmHg 60%
    15:00 +19°C° 0.3 mm 4 mps 759 mmHg 61%
    16:00 +19°C° 0.3 mm 4 mps 759 mmHg 61%
    17:00 +18°C° 0.1 mm 3 mps 759 mmHg 67%
    18:00 +16°C° 0.1 mm 3 mps 759 mmHg 73%
    19:00 +14°C° 0.1 mm 3 mps 759 mmHg 79%
    20:00 +14°C° 0 mm 2 mps 759 mmHg 82%
    21:00 +13°C° 0 mm 2 mps 759 mmHg 85%
    22:00 +12°C° 0 mm 2 mps 759 mmHg 87%
    23:00 +11°C° 0 mm 1 mps 759 mmHg 88%

    28 May, Thursday

    Time Temperature Precipitation Wind Pressure Humidity
    00:00 +11°C° 0 mm 1 mps 758 mmHg 89%
    01:00 +11°C° 0 mm 1 mps 758 mmHg 89%
    02:00 +11°C° 0 mm 1 mps 758 mmHg 89%
    03:00 +11°C° 0 mm 1 mps 758 mmHg 89%
    04:00 +11°C° 0 mm 1 mps 758 mmHg 89%
    05:00 +11°C° 0 mm 1 mps 757 mmHg 86%
    06:00 +12°C° 0 mm 1 mps 757 mmHg 84%
    07:00 +13°C° 0 mm 2 mps 757 mmHg 82%
    08:00 +13°C° 0.2 mm 3 mps 757 mmHg 77%
    09:00 +14°C° 0.2 mm 4 mps 757 mmHg 72%
    10:00 +16°C° 0.2 mm 5 mps 757 mmHg 67%
    11:00 +16°C° 0.1 mm 5 mps 756 mmHg 62%
    12:00 +17°C° 0.1 mm 5 mps 756 mmHg 58%
    13:00 +19°C° 0.1 mm 4 mps 756 mmHg 54%
    14:00 +17°C° 0.3 mm 5 mps 755 mmHg 59%
    15:00 +17°C° 0.3 mm 6 mps 755 mmHg 64%
    16:00 +16°C° 0.3 mm 7 mps 755 mmHg 69%
    17:00 +15°C° 0.1 mm 6 mps 755 mmHg 73%
    18:00 +13°C° 0.1 mm 6 mps 755 mmHg 76%
    19:00 +12°C° 0.1 mm 5 mps 756 mmHg 80%
    20:00 +10°C° 0 mm 5 mps 756 mmHg 79%
    21:00 +9°C° 0 mm 5 mps 756 mmHg 79%
    22:00 +8°C° 0 mm 5 mps 756 mmHg 78%
    23:00 +7°C° 0 mm 5 mps 756 mmHg 78%

    29 May, Friday

    Time Temperature Precipitation Wind Pressure Humidity
    00:00 +6°C° 0 mm 5 mps 756 mmHg 79%
    01:00 +5°C° 0 mm 4 mps 756 mmHg 79%
    02:00 +5°C° 0 mm 4 mps 757 mmHg 80%
    03:00 +5°C° 0 mm 4 mps 757 mmHg 81%
    04:00 +4°C° 0 mm 4 mps 757 mmHg 82%
    05:00 +5°C° 0 mm 5 mps 757 mmHg 77%
    06:00 +7°C° 0 mm 5 mps 757 mmHg 72%
    07:00 +8°C° 0 mm 5 mps 757 mmHg 67%
    08:00 +9°C° 0 mm 5 mps 756 mmHg 65%
    09:00 +12°C° 0 mm 5 mps 756 mmHg 62%
    10:00 +13°C° 0 mm 5 mps 756 mmHg 59%
    11:00 +13°C° 0.7 mm 6 mps 756 mmHg 64%
    12:00 +12°C° 0.7 mm 7 mps 755 mmHg 68%
    13:00 +12°C° 0.7 mm 7 mps 755 mmHg 72%
    14:00 +12°C° 0.4 mm 7 mps 755 mmHg 72%
    15:00 +13°C° 0.4 mm 6 mps 754 mmHg 72%
    16:00 +13°C° 0.4 mm 6 mps 754 mmHg 72%
    17:00 +11°C° 0.5 mm 6 mps 754 mmHg 77%
    18:00 +10°C° 0.5 mm 6 mps 754 mmHg 83%
    19:00 +9°C° 0.5 mm 6 mps 754 mmHg 88%
    20:00 +8°C° 0 mm 5 mps 754 mmHg 90%
    21:00 +7°C° 0 mm 4 mps 754 mmHg 91%
    22:00 +7°C° 0 mm 3 mps 754 mmHg 92%
    23:00 +7°C° 0 mm 3 mps 754 mmHg 93%

    30 May, Saturday

    Time Temperature Precipitation Wind Pressure Humidity
    00:00 +5°C° 0 mm 3 mps 754 mmHg 94%
    01:00 +5°C° 0 mm 3 mps 754 mmHg 95%
    02:00 +5°C° 0 mm 3 mps 754 mmHg 95%
    03:00 +5°C° 0 mm 3 mps 754 mmHg 95%
    04:00 +5°C° 0 mm 3 mps 754 mmHg 95%
    05:00 +7°C° 0 mm 2 mps 754 mmHg 93%
    06:00 +9°C° 0 mm 2 mps 754 mmHg 91%
    07:00 +11°C° 0 mm 1 mps 754 mmHg 90%
    08:00 +12°C° 0 mm 1 mps 754 mmHg 86%
    09:00 +13°C° 0 mm 1 mps 754 mmHg 83%
    10:00 +14°C° 0 mm 2 mps 754 mmHg 80%
    11:00 +14°C° 0 mm 2 mps 754 mmHg 79%
    12:00 +15°C° 0 mm 2 mps 754 mmHg 77%
    13:00 +15°C° 0 mm 2 mps 754 mmHg 76%
    14:00 +16°C° 0.1 mm 2 mps 753 mmHg 77%
    15:00 +16°C° 0.1 mm 2 mps 753 mmHg 78%
    16:00 +16°C° 0.1 mm 2 mps 753 mmHg 79%
    17:00 +16°C° 0.3 mm 2 mps 753 mmHg 82%
    18:00 +15°C° 0.3 mm 2 mps 752 mmHg 85%
    19:00 +15°C° 0.3 mm 2 mps 752 mmHg 89%
    20:00 +14°C° 1.1 mm 2 mps 752 mmHg 91%
    21:00 +14°C° 1.1 mm 2 mps 752 mmHg 93%
    22:00 +14°C° 1.1 mm 2 mps 752 mmHg 96%
    23:00 +14°C° 0.3 mm 2 mps 752 mmHg 95%
    Show more